| time (UTC) | temp F | wind direction | speed knots | gust knots | rain 1hr in | rain 24hr in | rain mn in | humidity % | barometer mb |
| 20260510100150 | 53 | 0 | 0.0 | 0.0 | 0.00 | 0.41 | 0.00 | 96 | 1012.7 |
| 20260510093149 | 53 | 0 | 0.0 | 0.0 | 0.00 | 0.41 | 0.00 | 96 | 1013.0 |
| 20260510090150 | 53 | 0 | 0.0 | 0.0 | 0.00 | 0.41 | 0.00 | 96 | 1013.0 |
| 20260510070150 | 54 | 0 | 0.0 | 0.0 | 0.00 | 0.43 | 0.00 | 96 | 1012.4 |
| 20260510060150 | 54 | 0 | 0.0 | 0.0 | 0.00 | 0.43 | 0.00 | 96 | 1011.9 |
| 20260510053149 | 54 | 0 | 0.0 | 0.0 | 0.00 | 0.43 | 0.00 | 96 | 1012.2 |
| 20260510050149 | 54 | 0 | 0.0 | 0.0 | 0.00 | 0.43 | 0.00 | 96 | 1012.2 |
| 20260510043149 | 54 | 0 | 0.0 | 0.0 | 0.00 | 0.43 | 0.00 | 96 | 1012.2 |
| 20260510040150 | 54 | 0 | 0.0 | 0.0 | 0.00 | 0.43 | 0.00 | 96 | 1011.8 |
| 20260510030320 | 54 | 0 | 0.0 | 0.0 | 0.00 | 0.43 | 0.43 | 96 | 1012.0 |
| 20260510030150 | 54 | 0 | 0.0 | 0.0 | 0.00 | 0.43 | 0.43 | 96 | 1012.0 |
| 20260510020151 | 54 | 0 | 0.0 | 0.0 | 0.00 | 0.43 | 0.43 | 96 | 1011.9 |
| 20260510010150 | 54 | 0 | 0.0 | 0.0 | 0.00 | 0.43 | 0.43 | 96 | 1011.7 |
| 20260510000152 | 55 | 248 | 0.0 | 1.7 | 0.06 | 0.43 | 0.43 | 95 | 1011.2 |
| 20260509220150 | 57 | 233 | 0.0 | 2.6 | 0.03 | 0.23 | 0.23 | 95 | 1012.3 |
| 20260509210150 | 57 | 198 | 0.0 | 2.6 | 0.06 | 0.20 | 0.20 | 95 | 1011.9 |
| 20260509200150 | 58 | 220 | 1.7 | 4.3 | 0.05 | 0.14 | 0.14 | 92 | 1012.2 |
| 20260509180150 | 64 | 181 | 0.9 | 3.5 | 0.00 | 0.03 | 0.02 | 66 | 1011.6 |
| 20260509150150 | 58 | 227 | 0.0 | 1.7 | 0.00 | 0.03 | 0.02 | 80 | 1013.2 |
| 20260509140150 | 54 | 82 | 0.0 | 1.7 | 0.00 | 0.03 | 0.02 | 84 | 1013.2 |
| 20260509130153 | 50 | 336 | 0.0 | 0.9 | 0.00 | 0.03 | 0.02 | 88 | 1014.2 |
| 20260509120152 | 49 | 10 | 0.9 | 2.6 | 0.00 | 0.03 | 0.02 | 89 | 1014.8 |
| 20260509110151 | 48 | 26 | 0.0 | 1.7 | 0.00 | 0.03 | 0.02 | 94 | 1014.4 |